Marianna, FL

8:30 AM CST on February 19, 2017 (GMT -0600)
Marianna Municipal

Weather History for KMAI - November, 2013

Change the Weather History Date:

Monday, November 18, 2013

  Actual Average Record
Temperature  
Mean Temperature 65 °F 59 °F  
Max Temperature 73 °F 71 °F 81 °F (2016)
Min Temperature 56 °F 48 °F 25 °F (2014)
Degree Days  
Heating Degree Days 0    
Month to date heating degree days 90  
Since 1 July heating degree days 124  
Cooling Degree Days 0    
Month to date cooling degree days 18  
Year to date cooling degree days 2485  
Growing Degree Days 15 (Base 50)    
Moisture  
Dew Point 68 °F    
Average Humidity 80    
Maximum Humidity 100    
Minimum Humidity 60    
Precipitation  
Precipitation 0.78 in 0.16 in 0.78 in (2013)
Month to date precipitation 1.86 2.32  
Year to date precipitation 56.81 47.87  
Sea Level Pressure  
Sea Level Pressure 29.97 in    
Wind  
Wind Speed 5 mph (West)    
Max Wind Speed 16 mph    
Max Gust Speed 21 mph    
Visibility 7 miles    
Events Rain    
T = Trace of Precipitation, MM = Missing Value Source: NWS Daily Summary

Daily Weather History Graph

Daily Weather History Graph

Search for Another Location

Airport or City:

Trip Planner

Search our weather history database for the weather conditions in past years. The results will help you decide how hot, cold, wet, or windy it might be!

Date:

Astronomy

Nov. 18, 2013 Rise Set
Actual Time 6:10 AM CST 4:41 PM CST
Civil Twilight 5:44 AM CST 5:07 PM CST
Nautical Twilight 5:15 AM CST 5:36 PM CST
Astronomical Twilight 4:46 AM CST 6:05 PM CST
Moon 5:44 PM CST (11/18) 6:57 AM CST (11/18)
Length of Visible Light 11h 22m
Length of Day
10h 31m
Full, 99% of the Moon is Illuminated
Nov 18
Full
Nov 25
Last Quarter
Dec 2
New
Dec 9
First Quarter
Dec 17
Full

Hourly Weather History & Observations

Time (CST) Temp. Dew Point Humidity Pressure Visibility Wind Dir Wind Speed Gust Speed Precip Events Conditions
12:51 AM 71.6 °F 71.6 °F 100% 29.99 in 6.0 mi South 3.5 mph - N/A   Overcast
12:53 AM 72.0 °F 71.1 °F 97% 29.99 in 6.0 mi South 3.5 mph - N/A   Overcast
1:01 AM 71.6 °F 71.6 °F 100% 29.99 in 5.0 mi SSW 4.6 mph - N/A   Overcast
1:53 AM 72.0 °F 71.1 °F 97% 29.96 in 6.0 mi South 3.5 mph - N/A   Overcast
2:25 AM 71.6 °F 71.6 °F 100% 29.96 in 5.0 mi SSW 5.8 mph - N/A   Mostly Cloudy
2:53 AM 72.0 °F 71.1 °F 97% 29.96 in 7.0 mi SSW 4.6 mph - N/A   Overcast
3:53 AM 72.0 °F 71.1 °F 97% 29.95 in 9.0 mi SSW 3.5 mph - N/A   Overcast
4:53 AM 73.0 °F 71.1 °F 93% 29.95 in 7.0 mi Calm Calm - N/A   Overcast
5:53 AM 73.0 °F 72.0 °F 96% 29.95 in 5.0 mi South 3.5 mph - 0.01 in Rain Light Rain
6:18 AM 71.6 °F 71.6 °F 100% 29.96 in 4.0 mi Calm Calm - 0.00 in Rain Light Rain
6:53 AM 73.0 °F 72.0 °F 96% 29.96 in 4.0 mi SSW 5.8 mph - 0.01 in   Overcast
7:53 AM 73.0 °F 72.0 °F 96% 29.97 in 2.0 mi WSW 9.2 mph - 0.06 in Rain Heavy Rain
7:58 AM 73.4 °F 71.6 °F 94% 29.98 in 1.0 mi West 10.4 mph - 0.05 in Rain Heavy Rain
8:11 AM 71.6 °F 69.8 °F 94% 30.00 in 3.0 mi West 11.5 mph - 0.10 in Rain Light Rain
8:18 AM 71.6 °F 69.8 °F 94% 30.00 in 4.0 mi West 11.5 mph - 0.12 in Rain Heavy Rain
8:27 AM 71.6 °F 69.8 °F 94% 30.00 in 9.0 mi WSW 12.7 mph - 0.13 in Rain Light Rain
8:53 AM 71.1 °F 69.1 °F 93% 30.01 in 2.0 mi West 9.2 mph - 0.21 in Rain Heavy Rain
9:01 AM 71.6 °F 69.8 °F 94% 30.01 in 1.5 mi WNW 9.2 mph - 0.07 in Rain Heavy Rain
9:07 AM 71.6 °F 69.8 °F 94% 30.00 in 3.0 mi NW 5.8 mph - 0.08 in Rain Light Rain
9:19 AM 71.6 °F 69.8 °F 94% 30.01 in 4.0 mi West 9.2 mph - 0.10 in Rain Light Rain
9:53 AM 71.1 °F 69.1 °F 93% 30.00 in 10.0 mi Calm Calm - 0.10 in Rain Light Rain
10:53 AM 72.0 °F 70.0 °F 93% 29.99 in 10.0 mi NW 3.5 mph - 0.00 in   Overcast
11:53 AM 72.0 °F 70.0 °F 93% 29.97 in 10.0 mi SW 3.5 mph - 0.00 in Rain Light Rain
12:09 PM 71.6 °F 71.6 °F 100% 29.96 in 10.0 mi SSW 5.8 mph - 0.00 in Rain Light Rain
12:39 PM 73.4 °F 71.6 °F 94% 29.96 in 10.0 mi West 3.5 mph - 0.00 in   Scattered Clouds
12:53 PM 73.0 °F 71.1 °F 93% 29.96 in 10.0 mi SW 4.6 mph - 0.00 in   Scattered Clouds
1:10 PM 71.6 °F 71.6 °F 100% 29.96 in 10.0 mi WSW 5.8 mph - 0.00 in Rain Light Rain
1:50 PM 71.6 °F 69.8 °F 94% 29.97 in 1.8 mi NW 8.1 mph - 0.11 in Rain Heavy Rain
1:53 PM 71.1 °F 70.0 °F 96% 29.97 in 0.8 mi NW 8.1 mph - 0.19 in Rain Heavy Rain
2:07 PM 71.6 °F 69.8 °F 94% 29.96 in 1.0 mi North 3.5 mph - 0.19 in Rain Heavy Rain
2:14 PM 71.6 °F 69.8 °F 94% 29.95 in 2.0 mi Calm Calm - 0.20 in Rain Light Rain
2:21 PM 71.6 °F 69.8 °F 94% 29.95 in 10.0 mi Calm Calm - 0.20 in Rain Light Rain
2:53 PM 72.0 °F 70.0 °F 93% 29.94 in 10.0 mi Calm Calm - 0.20 in   Scattered Clouds
3:22 PM 71.6 °F 69.8 °F 94% 29.93 in 10.0 mi SW 5.8 mph - N/A   Scattered Clouds
3:31 PM 71.6 °F 69.8 °F 94% 29.93 in 10.0 mi SSW 5.8 mph - N/A   Mostly Cloudy
3:53 PM 71.1 °F 70.0 °F 96% 29.92 in 10.0 mi Calm Calm - N/A   Mostly Cloudy
4:00 PM 71.6 °F 69.8 °F 94% 29.92 in 10.0 mi Calm Calm - N/A   Scattered Clouds
4:46 PM 71.6 °F 69.8 °F 94% 29.94 in 9.0 mi WNW 5.8 mph - N/A   Mostly Cloudy
4:53 PM 71.1 °F 70.0 °F 96% 29.94 in 10.0 mi WNW 6.9 mph - N/A   Mostly Cloudy
5:53 PM 70.0 °F 69.1 °F 97% 29.95 in 10.0 mi West 4.6 mph - N/A   Overcast
6:53 PM 69.1 °F 68.0 °F 96% 29.96 in 5.0 mi NW 5.8 mph - N/A   Overcast
7:12 PM 68.0 °F 66.2 °F 94% 29.97 in 10.0 mi NNW 10.4 mph - N/A   Scattered Clouds
7:53 PM 64.9 °F 55.0 °F 70% 29.98 in 10.0 mi North 8.1 mph - N/A   Clear
8:53 PM 63.0 °F 51.1 °F 65% 30.00 in 10.0 mi North 8.1 mph - N/A   Clear
9:53 PM 60.1 °F 46.9 °F 62% 30.01 in 10.0 mi North 8.1 mph - N/A   Clear
10:53 PM 57.9 °F 45.0 °F 62% 30.01 in 10.0 mi North 6.9 mph - N/A   Clear
11:53 PM 57.0 °F 42.1 °F 57% 30.02 in 10.0 mi North 8.1 mph - N/A   Clear